Weather History for Dryden, TX

Change the Weather History Date:

Sunday, March 31, 2013

  Actual Average (KFST) Record (KFST)
Temperature  
Mean Temperature 78 °F -  
Max Temperature 93 °F 73 °F 91 °F (2012)
Min Temperature 64 °F 48 °F 37 °F (1998)
Cooling Degree Days 12    
Growing Degree Days 28 (Base 50)    
Moisture  
Dew Point 47 °F    
Average Humidity 42    
Maximum Humidity 70    
Minimum Humidity 14    
Precipitation  
Precipitation 0.00 in - - ()
Sea Level Pressure  
Sea Level Pressure 29.81 in    
Wind  
Wind Speed 7 mph (NNE)    
Max Wind Speed 13 mph    
Max Gust Speed 22 mph    
Averages and records for this station are not official NWS values.
T = Trace of Precipitation, MM = Missing Value Source: NWS Daily Summary

Daily Weather History Graph

Daily Weather History Graph

Search for Another Location

Airport:

Trip Planner

Search our weather history database for the weather conditions in past years. The results will help you decide how hot, cold, wet, or windy it might be!

Date:

Astronomy

Mar. 31, 2013 Rise Set
Actual Time 7:39 AM CDT 8:07 PM CDT
Civil Twilight 7:14 AM CDT 8:31 PM CDT
Nautical Twilight 6:46 AM CDT 8:59 PM CDT
Astronomical Twilight 6:18 AM CDT 9:28 PM CDT
Moon No Moon Rise 10:47 AM CDT (3/31)
Length of Visible Light 13h 16m
Length of Day
12h 28m
Waning Gibbous, 77% of the Moon is Illuminated
Mar 31
Waning Gibbous
Apr 2
Last Quarter
Apr 10
New
Apr 18
First Quarter
Apr 25
Full

Hourly Weather History & Observations

Time (CDT) Temp. Heat Index Dew Point Humidity Pressure Visibility Wind Dir Wind Speed Gust Speed Precip Events Conditions
12:53 AM 72.0 °F - 52.0 °F 49% 29.80 in - North 6.9 mph - N/A   Unknown
1:53 AM 72.0 °F - 53.1 °F 51% 29.79 in - North 5.8 mph - N/A   Unknown
2:53 AM 70.0 °F - 53.1 °F 55% 29.79 in - North 8.1 mph - N/A   Unknown
3:53 AM 69.1 °F - 53.1 °F 57% 29.78 in - North 6.9 mph - N/A   Unknown
4:53 AM 68.0 °F - 53.1 °F 59% 29.77 in - North 5.8 mph - N/A   Unknown
5:53 AM 66.0 °F - 53.1 °F 63% 29.78 in - North 9.2 mph - N/A   Unknown
6:53 AM 64.0 °F - 53.1 °F 67% 29.80 in - North 8.1 mph - N/A   Unknown
7:53 AM 64.0 °F - 54.0 °F 70% 29.83 in - NNE 8.1 mph - N/A   Unknown
8:53 AM 66.0 °F - 55.0 °F 68% 29.85 in - NNE 4.6 mph - N/A   Unknown
9:53 AM 69.1 °F - 57.9 °F 68% 29.86 in - East 3.5 mph - N/A   Unknown
10:53 AM 73.0 °F - 57.9 °F 59% 29.85 in - NE 4.6 mph - N/A   Unknown
11:53 AM 77.0 °F - 57.9 °F 52% 29.85 in - NE 5.8 mph - N/A   Unknown
12:53 PM 82.9 °F 82.1 °F 55.9 °F 39% 29.83 in - NNE 5.8 mph - N/A   Unknown
1:53 PM 90.0 °F - 46.9 °F 23% 29.81 in - NNE 12.7 mph 21.9 mph N/A   Unknown
2:53 PM 91.0 °F - 43.0 °F 19% 29.79 in - NNE 10.4 mph 17.3 mph N/A   Unknown
3:53 PM 89.1 °F - 41.0 °F 19% 29.78 in - Variable 5.8 mph - N/A   Unknown
4:53 PM 90.0 °F - 35.1 °F 14% 29.76 in - North 6.9 mph 17.3 mph N/A   Unknown
5:53 PM 91.0 °F - 36.0 °F 14% 29.75 in - North 9.2 mph - N/A   Unknown
6:53 PM 89.1 °F - 36.0 °F 15% 29.76 in - North 6.9 mph - N/A   Unknown
7:53 PM 84.0 °F - 37.0 °F 19% 29.79 in - North 9.2 mph - N/A   Unknown
8:53 PM 78.1 °F - 37.9 °F 24% 29.82 in - North 8.1 mph - N/A   Unknown
9:53 PM 77.0 °F - 37.0 °F 24% 29.85 in - North 8.1 mph - N/A   Unknown
10:53 PM 71.1 °F - 37.9 °F 30% 29.89 in - NE 3.5 mph - N/A   Unknown
11:53 PM 69.1 °F - 43.0 °F 39% 29.91 in - Calm Calm - N/A   Unknown